Hourly Data Report for July 17, 2021

VINELAND STATION RCS
ONTARIO
Current Station Operator: ECCC - MSC

43°11'00.000" N
79°24'00.000" W
79.20 m
6139148
71171
XVN

Download Data

Hourly Data (July 2021)
Hourly Data Report for July 17, 2021
TIME
LST
Temp Definition
°C
Dew Point Definition
°C
Rel Hum Definition
%
Precip. Amount Definition
mm

Wind Dir Definition
10's deg

Wind Spd Definition
km/h
Visibility Definition
km
Stn Press Definition
kPa
Hmdx Definition


Wind Chill Definition


Weather Definition


00:00 20.4 16.0 76 LegendMM 7 11   100.69 25   LegendNANA
01:00 19.1 17.0 87 LegendMM 7 11   100.70     LegendNANA
02:00 18.1 16.5 90 LegendMM 9 7   100.72     LegendNANA
03:00 17.5 14.8 84 LegendMM 9 8   100.75     LegendNANA
04:00 16.4 14.5 89 LegendMM 10 7   100.76     LegendNANA
05:00 16.2 14.9 92 LegendMM 8 10   100.71     LegendNANA
06:00 16.5 13.8 84 LegendMM 8 13   100.76     LegendNANA
07:00 16.6 14.2 86 LegendMM 7 9   100.82     LegendNANA
08:00 15.9 14.6 92 LegendMM 10 7   100.86     LegendNANA
09:00 16.9 15.5 91 LegendMM 7 17   100.79     LegendNANA
10:00 17.3 15.1 87 LegendMM 8 16   100.79     LegendNANA
11:00 17.4 15.8 90 LegendMM 8 18   100.82     LegendNANA
12:00 17.2 15.5 89 LegendMM 6 20   100.77     LegendNANA
13:00 18.5 16.7 89 LegendMM 7 23   100.73     LegendNANA
14:00 18.7 15.2 80 LegendMM 5 21   100.80     LegendNANA
15:00 18.4 16.5 88 LegendMM 6 20   100.77     LegendNANA
16:00 18.0 15.3 84 LegendMM 7 18   100.81     LegendNANA
17:00 18.4 15.5 83 LegendMM 6 13   100.77     LegendNANA
18:00 18.6 16.0 85 LegendMM 6 13   100.76     LegendNANA
19:00 18.7 16.7 88 LegendMM 4 12   100.78     LegendNANA
20:00 18.3 17.2 93 LegendMM 4 6   100.80     LegendNANA
21:00 18.6 17.5 93 LegendMM 2 6   100.83     LegendNANA
22:00 18.2 17.2 94 LegendMM   0   100.84     LegendNANA
23:00 18.0 17.3 95 LegendMM 26 3   100.84     LegendNANA

Notes on Data Quality.

Legend

  • E = Estimated
  • M = Missing
  • NA = Not Available*
  • [empty] = Indicates an unobserved value
Date modified: